View from above orbital plane
|
View from above satellite
|
Ground track
|
The orbit data is extracted from the following two-line orbital elements,
1 18025U 87043H 21015.73224332 .00001125 00000-0 10410-3 0 9991
2 18025 63.3010 299.5664 0944672 64.3484 305.2033 13.46182786 82140
Epoch (UTC): | 15 January 2021 17:34:25 |
Eccentricity: | 0.0944672 |
inclination: | 63.3010° |
perigee height: | 381 km |
apogee height: | 1791 km |
right ascension of ascending node: | 299.5664° |
argument of perigee: | 64.3484° |
revolutions per day: | 13.46182786 |
mean anomaly at epoch: | 305.2033° |
orbit number at epoch: | 8214 |
The dashed part of the orbit path shows where the satellite is in the earth's shadow,
|
|